Wind_Speed
7 7 6 5 4 3 3 3 4 5 6 6 8 10 11 11 11 10 9 8 7 7 7 6 6 6 6 5 5 5 5 5 5 5 4 4 4 3 3 1 1 1 1 1 1 1 1 2 3
8 8 7 5 3 1 2 2 3 5 5 7 8 9 10 10 10 10 10 9 8 7 8 7 6 6 6 6 5 5 5 5 5 5 5 4 4 3 3 2 2 2 2 1 2 2 1 1 2
8 7 6 5 3 1 3 4 4 6 7 8 9 10 10 9 9 9 10 9 9 8 8 7 6 6 6 6 5 5 5 4 4 5 5 4 3 3 2 2 2 3 2 1 2 2 2 1 2
8 8 6 5 2 2 3 4 5 6 8 9 10 11 11 10 9 10 10 10 9 8 8 6 6 5 5 5 5 5 4 4 4 4 4 3 3 3 3 3 3 3 2 2 2 2 3 2 2
9 9 8 5 3 1 3 5 6 7 8 9 9 10 11 10 10 10 10 10 9 9 7 6 6 5 5 5 5 4 4 4 4 4 4 4 3 3 3 3 3 4 3 3 3 3 3 3 3
8 8 8 6 4 2 3 6 7 9 10 10 10 10 11 10 10 10 10 10 9 8 7 6 7 6 5 4 4 4 4 4 4 4 4 5 5 4 4 4 4 3 4 3 3 3 3 4 4
9 9 8 7 6 3 3 6 9 10 10 9 10 11 11 10 10 10 10 9 9 9 8 7 7 6 6 5 4 4 5 5 5 5 5 5 5 5 4 4 4 4 4 4 4 3 4 4 4
11 11 9 7 6 5 5 6 9 10 11 10 11 11 12 11 10 9 9 9 9 9 8 7 7 6 6 6 5 4 4 5 5 5 6 6 6 5 5 5 4 4 4 5 5 4 4 5 5
12 12 11 8 6 6 6 8 9 10 10 11 12 13 13 12 11 10 10 9 9 8 7 7 7 7 6 5 5 4 4 5 5 5 5 6 6 6 6 6 5 5 5 5 5 5 5 5 5
14 13 12 10 9 7 8 10 11 11 11 11 12 13 13 12 11 11 11 10 9 8 7 7 7 6 6 5 5 4 4 4 4 5 5 6 6 6 7 6 6 6 6 6 6 7 7 6 6
15 14 14 12 11 9 9 9 11 11 11 11 12 12 12 13 12 11 12 11 10 9 8 7 7 6 5 4 4 4 4 4 5 5 5 6 6 6 6 6 6 6 6 6 7 7 8 8 7
17 16 15 13 12 11 9 10 12 12 13 13 13 13 13 12 12 12 12 11 10 9 8 7 7 6 5 4 4 4 5 5 5 5 5 5 6 6 6 6 6 6 6 6 6 6 7 7 7
18 17 17 15 14 12 11 11 13 14 14 14 14 13 12 12 12 12 12 11 11 10 9 7 6 6 5 5 5 5 5 5 5 5 6 6 7 7 7 7 7 7 7 6 6 6 6 7 6
18 17 17 16 15 14 13 12 13 13 13 14 14 13 12 12 12 13 13 13 12 11 10 7 6 5 5 6 6 6 6 5 5 6 7 7 8 8 7 7 8 8 8 7 7 7 7 7 7
18 17 17 16 15 14 14 13 13 12 13 13 14 13 12 12 12 12 13 13 12 11 10 7 6 7 7 7 7 6 6 6 6 6 7 7 8 8 8 8 8 8 9 9 9 8 8 8 8
18 17 15 13 13 13 14 13 13 14 13 13 14 14 13 13 13 12 12 11 11 11 11 9 8 9 9 8 7 8 8 7 8 7 7 8 9 8 9 9 9 9 9 9 9 9 8 8 8
18 16 15 14 13 13 14 13 14 15 15 15 15 15 14 14 13 13 13 12 12 11 10 10 10 10 10 10 10 8 7 8 9 8 9 9 9 9 9 9 9 9 9 9 9 9 9 9 9
17 16 16 14 13 14 15 14 14 15 16 16 16 15 15 14 13 13 13 12 12 12 11 11 10 10 10 10 9 9 9 9 10 9 9 9 9 10 10 10 10 10 9 10 10 10 10 10 10
17 17 17 15 14 16 16 16 15 16 16 17 17 17 16 16 15 14 13 13 12 12 12 11 11 12 12 11 11 10 10 10 11 10 9 10 10 10 11 11 11 10 10 10 11 11 11 11 11
18 18 17 16 16 17 18 19 18 18 18 18 19 18 17 17 16 16 14 13 13 13 13 13 12 13 13 12 12 11 11 10 11 10 10 10 10 10 11 12 12 12 11 11 12 12 12 12 12
19 19 18 17 17 19 19 21 20 18 18 18 18 18 18 17 16 16 15 14 14 14 14 13 13 13 13 13 14 13 12 11 11 11 10 10 11 11 12 12 13 13 13 12 13 13 13 13 14
20 19 19 19 20 20 20 21 20 19 18 18 18 19 19 18 17 17 16 16 15 15 15 14 14 15 15 14 14 14 13 12 12 11 11 11 12 12 12 13 13 13 13 13 13 13 14 14 15
20 19 20 20 21 22 22 23 21 20 20 20 19 19 20 20 19 19 18 17 16 16 16 15 16 16 15 15 15 14 14 13 13 13 13 13 13 13 13 13 13 13 13 13 14 14 14 15 15
21 22 22 22 23 24 23 24 22 21 21 21 21 20 21 21 20 20 19 18 17 16 16 16 16 16 15 15 15 15 14 14 14 15 14 14 14 15 15 15 15 14 14 14 15 15 16 16 17
22 23 23 24 24 23 22 25 23 20 21 21 21 21 20 19 19 19 19 18 19 18 17 16 16 16 16 16 16 16 16 16 16 16 16 16 16 17 17 16 16 16 15 15 15 16 16 17 18
21 23 24 24 23 22 23 24 21 19 19 20 21 20 20 19 19 20 19 19 20 19 18 17 17 17 17 17 17 17 17 18 18 18 18 18 18 18 17 17 17 17 16 16 16 17 17 17 18
20 22 22 24 24 24 24 23 22 21 22 22 21 21 22 21 20 19 19 20 20 20 20 19 18 18 19 19 19 19 19 19 19 19 20 20 19 18 18 17 18 18 17 17 17 17 17 17 17
22 22 23 25 25 26 26 24 23 22 22 23 23 23 22 20 18 18 19 20 21 21 21 21 20 20 19 20 20 21 21 21 20 20 20 20 20 20 19 18 18 18 18 18 18 18 17 17 17
23 23 24 25 26 26 25 25 23 22 22 23 23 23 22 20 20 20 21 22 22 22 22 23 23 22 21 21 21 21 22 22 22 21 21 21 21 21 21 20 19 19 19 19 18 18 18 18 18
24 24 24 25 26 26 25 25 24 24 23 22 22 22 21 21 20 21 22 23 23 24 24 23 23 23 22 22 22 23 22 22 22 22 22 22 22 21 21 21 20 20 20 20 19 19 19 19 19
Wind_Direction
161 155 148 138 117 83 50 49 26 22 13 354 345 342 343 345 344 344 345 338 339 341 340 334 333 335 332 331 332 333 329 327 325 317 309 313 312 313 295 263 310 331 289 237 225 209 185 158 165
171 165 162 156 136 64 37 15 4 16 4 349 340 339 338 339 340 340 342 344 345 342 341 331 330 328 326 324 324 326 322 319 320 318 316 315 311 302 298 283 296 301 274 247 241 229 210 165 173
175 174 173 166 166 295 318 346 350 356 344 342 338 338 335 338 341 341 344 346 346 341 340 336 331 323 316 314 315 317 314 311 312 313 313 309 309 301 284 279 293 291 279 261 236 225 216 208 210
183 180 182 182 199 291 337 347 352 345 341 338 339 336 335 340 344 343 343 345 343 339 336 334 328 323 316 314 314 311 308 307 310 309 309 295 295 292 273 271 279 281 276 271 252 231 224 232 234
195 190 189 194 199 312 348 347 336 343 331 330 336 335 336 339 341 341 341 343 339 334 330 330 327 327 322 318 314 306 308 310 307 299 303 299 283 285 285 279 273 270 263 261 252 247 235 238 244
205 203 198 209 211 258 334 332 332 321 314 322 327 328 332 337 340 339 337 337 337 337 333 331 326 322 323 318 316 308 307 303 300 297 298 295 294 293 297 289 281 273 252 251 247 246 235 236 240
209 207 214 223 221 244 304 319 327 321 318 322 325 325 325 330 339 343 337 336 334 334 334 329 321 310 313 312 306 308 306 303 299 298 298 296 299 301 297 289 275 266 251 246 245 247 240 235 238
210 214 215 223 226 241 286 307 310 312 316 320 325 325 325 327 335 340 338 334 334 332 332 332 326 312 310 307 302 305 302 301 299 298 296 296 298 301 294 295 286 278 268 255 248 248 247 239 239
215 219 214 216 226 248 279 290 293 298 308 315 321 324 322 322 328 335 337 334 331 331 330 327 323 319 313 307 303 302 298 295 296 299 296 292 293 295 298 301 299 295 288 271 262 257 250 244 239
220 218 214 221 231 246 271 285 285 293 300 308 315 320 318 320 322 329 334 332 329 329 329 325 318 314 309 310 312 309 299 298 294 296 295 294 293 289 291 294 297 292 291 282 271 267 260 251 242
222 222 221 230 239 244 261 278 280 288 298 308 316 317 319 320 320 324 330 331 327 325 323 320 319 313 310 313 314 317 313 305 301 300 296 290 291 289 289 293 292 291 286 279 273 269 262 255 253
227 226 230 237 241 247 253 268 275 287 299 302 307 311 315 322 322 325 331 329 326 317 320 317 314 313 312 323 320 309 309 307 305 309 305 298 292 284 282 287 288 288 285 275 271 267 256 256 258
230 232 235 240 246 249 253 259 269 280 288 292 299 304 311 315 314 317 323 329 327 320 319 312 307 307 310 318 318 307 304 314 312 307 306 299 294 289 285 282 285 281 278 277 273 266 263 257 251
232 235 238 242 245 247 254 258 266 276 285 286 291 300 307 313 313 311 315 320 321 321 316 307 304 296 298 298 299 308 301 307 308 310 308 304 300 294 287 287 289 281 277 275 272 264 262 259 257
238 240 240 240 246 246 253 258 266 274 284 288 290 296 303 309 313 312 313 311 312 315 314 304 301 297 297 291 289 301 296 300 305 309 309 303 303 300 293 289 288 285 280 277 274 273 263 263 260
242 245 243 242 246 251 254 257 258 265 277 284 286 291 299 304 309 310 311 309 309 309 307 299 295 296 291 287 292 291 294 292 295 299 303 302 306 306 299 292 290 289 286 281 277 273 271 268 261
243 247 247 245 246 250 254 257 256 262 271 279 283 285 293 299 303 307 307 308 307 304 301 300 299 298 292 287 289 293 294 296 293 292 301 305 305 306 306 302 294 290 285 280 275 270 269 266 264
243 248 249 248 247 251 255 256 254 261 268 274 279 282 289 291 296 304 303 304 305 301 296 294 297 298 293 290 291 290 289 295 291 289 292 299 301 301 302 301 295 291 287 283 277 273 271 269 270
245 249 250 248 249 250 252 252 250 258 263 270 274 277 287 291 293 297 297 296 299 300 298 293 296 296 292 289 285 282 285 288 292 289 290 295 298 302 300 296 293 291 289 285 279 275 271 269 269
248 251 250 248 250 252 254 255 251 256 261 266 272 276 282 288 286 290 291 292 295 295 294 293 294 293 287 287 289 287 286 287 288 284 281 290 299 301 301 297 291 288 289 286 283 279 274 270 267
247 249 248 250 249 249 255 255 252 253 257 263 266 270 276 282 283 287 284 287 290 293 294 292 289 287 286 284 286 287 285 285 283 285 284 289 294 296 297 296 291 289 287 285 285 283 278 275 270
248 247 248 248 248 246 251 253 251 251 253 256 262 267 272 278 284 285 282 284 286 287 287 288 286 280 279 278 281 281 281 282 283 286 286 290 291 293 296 294 291 289 288 288 287 285 280 277 272
249 246 245 245 244 245 247 252 252 253 254 256 263 268 272 275 280 281 278 280 285 285 284 285 283 279 276 273 274 276 276 276 282 285 288 290 291 291 292 292 291 291 291 290 287 283 280 278 275
247 245 245 246 246 244 245 250 252 253 258 261 264 268 273 275 275 277 277 279 283 285 285 287 285 279 275 272 272 272 273 274 279 283 284 287 288 288 289 289 289 290 290 289 287 284 281 278 276
243 243 245 247 247 247 245 249 253 257 260 263 265 268 273 276 273 271 272 278 281 281 282 283 285 277 271 272 272 271 272 272 274 278 280 284 287 287 287 286 286 287 288 289 287 285 282 279 276
244 244 247 250 251 251 249 250 254 257 258 261 265 267 269 272 272 271 274 281 283 278 278 280 280 275 270 270 271 272 271 271 272 276 279 281 283 283 283 282 283 283 283 287 285 283 280 277 275
243 246 249 250 252 252 252 253 253 256 257 261 265 266 270 268 269 271 274 280 280 280 280 278 277 276 272 271 273 274 274 275 274 274 276 278 280 280 279 279 280 281 282 283 283 283 280 277 273
244 245 248 248 250 250 252 253 254 254 258 262 264 266 269 267 268 271 274 276 279 279 280 280 279 280 278 275 274 274 274 274 275 275 277 277 277 277 277 278 278 278 279 280 283 282 280 276 273
241 243 248 250 252 254 254 254 256 259 262 264 263 266 265 267 270 270 273 275 279 278 277 279 279 277 277 275 274 274 274 275 276 275 275 277 278 275 275 276 276 275 275 277 280 280 279 278 275
245 246 248 249 252 255 256 257 257 259 261 264 263 265 266 268 269 271 274 274 275 275 274 275 277 275 275 275 275 273 274 274 275 274 274 275 276 276 273 273 274 275 273 274 276 278 277 277 275
Height
5908 5908 5908 5909 5910 5909 5908 5908 5907 5907 5907 5906 5905 5904 5903 5902 5902 5903 5899 5896 5895 5894 5893 5892 5892 5891 5891 5890 5890 5889 5889 5888 5888 5888 5887 5887 5886 5886 5885 5885 5885 5884 5884 5884 5884 5884 5884 5884 5884
5908 5908 5909 5909 5909 5908 5908 5907 5907 5907 5906 5906 5906 5905 5904 5902 5901 5899 5897 5896 5894 5893 5893 5892 5891 5891 5890 5890 5890 5889 5889 5888 5888 5887 5887 5886 5886 5885 5885 5885 5884 5884 5884 5884 5884 5884 5884 5884 5884
5907 5907 5909 5908 5907 5907 5907 5906 5906 5905 5906 5905 5905 5904 5903 5902 5900 5898 5897 5895 5894 5893 5892 5892 5891 5890 5890 5890 5889 5889 5888 5888 5887 5887 5886 5886 5885 5885 5885 5885 5884 5884 5884 5884 5884 5884 5884 5884 5884
5907 5907 5908 5908 5907 5906 5906 5905 5906 5905 5905 5905 5904 5903 5902 5901 5899 5897 5896 5895 5894 5893 5892 5891 5891 5890 5889 5889 5888 5888 5887 5887 5887 5886 5886 5885 5885 5884 5884 5884 5884 5884 5883 5883 5883 5883 5883 5884 5884
5906 5906 5907 5906 5906 5906 5905 5904 5905 5905 5905 5904 5903 5902 5901 5901 5899 5897 5895 5894 5893 5892 5891 5891 5890 5889 5888 5888 5888 5887 5887 5886 5886 5886 5885 5885 5884 5884 5884 5883 5883 5883 5883 5883 5883 5883 5883 5883 5883
5906 5906 5906 5905 5905 5905 5904 5904 5904 5904 5904 5903 5903 5901 5901 5900 5898 5896 5894 5893 5892 5892 5891 5890 5889 5888 5888 5887 5887 5887 5886 5886 5885 5885 5885 5884 5884 5883 5883 5883 5882 5882 5882 5882 5882 5882 5882 5882 5882
5905 5905 5904 5904 5903 5903 5904 5903 5903 5903 5903 5902 5901 5900 5899 5898 5897 5896 5894 5893 5892 5891 5890 5889 5888 5888 5887 5887 5886 5886 5886 5885 5885 5884 5884 5884 5883 5883 5882 5882 5881 5881 5881 5881 5881 5881 5882 5881 5882
5902 5904 5903 5903 5902 5903 5903 5903 5902 5902 5901 5901 5900 5899 5898 5897 5896 5895 5893 5892 5891 5890 5889 5888 5887 5887 5886 5886 5885 5885 5884 5884 5884 5883 5883 5883 5883 5882 5881 5881 5880 5880 5880 5880 5880 5880 5880 5880 5881
5900 5902 5901 5902 5901 5902 5902 5902 5901 5900 5900 5899 5899 5898 5897 5895 5894 5893 5892 5891 5890 5889 5888 5887 5887 5886 5886 5885 5885 5884 5883 5883 5883 5882 5882 5882 5881 5881 5880 5880 5879 5879 5879 5879 5879 5879 5879 5879 5880
5898 5899 5900 5900 5900 5900 5900 5900 5900 5899 5898 5898 5897 5896 5895 5894 5893 5892 5891 5889 5888 5887 5887 5886 5885 5885 5884 5884 5883 5883 5882 5882 5881 5881 5881 5880 5880 5879 5879 5879 5878 5878 5878 5877 5877 5878 5877 5878 5878
5895 5897 5897 5897 5897 5898 5898 5898 5898 5897 5897 5896 5896 5895 5893 5892 5891 5891 5889 5888 5887 5886 5885 5884 5884 5883 5883 5883 5882 5882 5881 5881 5880 5880 5879 5879 5878 5878 5878 5877 5877 5877 5876 5876 5876 5876 5875 5876 5876
5893 5894 5894 5894 5894 5895 5896 5897 5896 5895 5895 5895 5894 5893 5892 5891 5890 5889 5888 5887 5886 5885 5884 5883 5882 5882 5882 5881 5881 5880 5880 5879 5879 5878 5878 5878 5877 5877 5876 5876 5876 5875 5875 5875 5875 5874 5874 5874 5875
5889 5891 5891 5891 5891 5892 5893 5894 5893 5893 5893 5892 5892 5891 5891 5890 5889 5887 5886 5885 5884 5883 5882 5881 5880 5880 5880 5880 5879 5879 5879 5878 5877 5877 5877 5876 5876 5875 5875 5875 5874 5874 5873 5873 5873 5873 5873 5873 5873
5886 5887 5888 5889 5889 5890 5890 5891 5891 5891 5890 5890 5889 5889 5889 5888 5887 5885 5884 5882 5881 5881 5880 5879 5878 5878 5878 5878 5878 5877 5877 5877 5876 5876 5875 5875 5874 5874 5873 5873 5872 5872 5872 5871 5871 5871 5871 5871 5871
5883 5885 5886 5886 5887 5887 5888 5888 5888 5888 5888 5887 5887 5886 5886 5886 5885 5884 5882 5880 5879 5878 5878 5877 5877 5876 5876 5875 5875 5876 5875 5875 5875 5874 5874 5873 5872 5872 5871 5871 5870 5870 5869 5869 5869 5869 5869 5869 5869
5880 5882 5882 5883 5884 5884 5886 5885 5885 5885 5885 5884 5884 5884 5884 5883 5882 5881 5880 5879 5878 5876 5876 5875 5875 5874 5874 5873 5873 5873 5874 5873 5873 5873 5872 5871 5871 5870 5869 5869 5868 5868 5867 5867 5866 5866 5866 5867 5867
5877 5878 5879 5880 5881 5881 5882 5882 5881 5881 5881 5881 5881 5881 5881 5880 5879 5879 5878 5877 5876 5875 5874 5873 5873 5872 5871 5871 5871 5871 5871 5871 5871 5871 5870 5870 5869 5868 5867 5867 5866 5865 5865 5864 5864 5864 5864 5864 5864
5874 5874 5875 5876 5877 5877 5877 5877 5877 5877 5878 5878 5878 5878 5878 5877 5876 5876 5876 5875 5875 5873 5872 5871 5871 5870 5870 5869 5869 5869 5869 5870 5869 5869 5868 5867 5867 5866 5865 5864 5864 5863 5862 5862 5861 5861 5861 5861 5861
5869 5869 5870 5871 5872 5872 5872 5873 5874 5874 5874 5875 5875 5874 5874 5874 5874 5873 5873 5873 5872 5871 5869 5869 5868 5868 5867 5867 5867 5867 5867 5867 5866 5866 5865 5865 5864 5864 5863 5862 5861 5860 5860 5859 5859 5858 5858 5858 5858
5863 5864 5865 5867 5867 5867 5867 5868 5870 5870 5871 5871 5871 5871 5871 5871 5871 5871 5870 5870 5869 5869 5868 5866 5865 5865 5864 5864 5864 5864 5864 5864 5864 5862 5862 5862 5862 5861 5860 5859 5858 5857 5857 5856 5855 5855 5855 5854 5854
5858 5859 5861 5862 5862 5862 5863 5864 5865 5866 5867 5867 5867 5867 5868 5868 5867 5867 5867 5867 5866 5865 5864 5864 5863 5862 5861 5861 5861 5861 5861 5861 5861 5860 5860 5859 5859 5858 5857 5856 5855 5854 5854 5853 5852 5851 5851 5851 5851
5853 5855 5856 5856 5856 5857 5859 5858 5860 5861 5862 5862 5863 5863 5863 5863 5864 5863 5863 5863 5862 5862 5861 5860 5859 5859 5858 5858 5858 5858 5858 5858 5858 5857 5857 5856 5856 5855 5854 5853 5852 5851 5850 5849 5848 5848 5848 5847 5847
5849 5850 5851 5851 5852 5853 5853 5853 5856 5855 5856 5857 5858 5859 5859 5859 5860 5859 5859 5858 5858 5857 5857 5856 5856 5855 5854 5854 5854 5854 5854 5855 5854 5854 5854 5853 5852 5852 5851 5850 5849 5848 5846 5845 5845 5844 5844 5843 5843
5844 5844 5845 5846 5846 5847 5849 5849 5850 5851 5851 5852 5853 5854 5854 5855 5855 5855 5854 5854 5853 5853 5852 5852 5851 5850 5850 5850 5850 5850 5850 5851 5850 5850 5850 5849 5849 5848 5847 5846 5845 5844 5843 5842 5841 5840 5839 5839 5838
5838 5839 5840 5840 5840 5842 5844 5843 5845 5846 5846 5847 5848 5849 5849 5849 5850 5849 5849 5848 5848 5848 5847 5847 5847 5846 5846 5846 5846 5846 5846 5846 5846 5846 5845 5844 5844 5843 5842 5841 5840 5839 5838 5838 5836 5836 5835 5834 5834
5832 5833 5835 5835 5836 5838 5838 5838 5841 5841 5841 5842 5842 5843 5844 5844 5845 5844 5844 5844 5844 5843 5842 5842 5842 5842 5841 5841 5841 5841 5841 5841 5841 5840 5839 5838 5838 5837 5837 5836 5835 5834 5833 5833 5831 5831 5830 5830 5829
5827 5827 5829 5830 5830 5831 5832 5833 5835 5835 5836 5836 5837 5838 5838 5839 5839 5839 5839 5839 5839 5838 5838 5838 5837 5837 5836 5836 5836 5835 5836 5836 5835 5834 5834 5834 5832 5831 5831 5831 5830 5829 5828 5827 5827 5826 5825 5824 5824
5822 5823 5823 5823 5824 5825 5826 5828 5829 5830 5830 5831 5831 5832 5833 5833 5833 5834 5834 5834 5833 5833 5833 5832 5832 5832 5831 5831 5830 5830 5830 5830 5829 5829 5828 5828 5827 5827 5826 5825 5825 5824 5823 5822 5821 5821 5820 5819 5819
5816 5817 5817 5818 5819 5820 5820 5824 5823 5824 5825 5825 5826 5826 5827 5827 5828 5828 5828 5828 5827 5827 5827 5826 5826 5826 5825 5825 5824 5824 5824 5823 5823 5823 5823 5822 5822 5821 5820 5819 5819 5818 5817 5817 5816 5816 5815 5814 5814
5809 5810 5811 5812 5813 5814 5815 5819 5817 5817 5818 5819 5820 5820 5820 5821 5821 5821 5821 5821 5821 5821 5820 5820 5820 5819 5819 5818 5818 5817 5817 5817 5817 5816 5816 5816 5815 5814 5813 5813 5813 5812 5812 5811 5811 5810 5809 5809 5808